Location: De Har
(53.3413°N, 6.6858°E)
Time: 16:24:34
(UTC+00:00)

Spot 2 - Pass Details

Date: 22 April 2026
Orbit: 559 x 739 km, 98.7° (Epoch: 9 May)

Event Time Altitude Azimuth Distance (km) Brightness Sun altitude
Exits shadow 02:23:06 - 164° (SSE) 2,805 7.1 -15.0°
Reaches altitude 10° 02:24:39 10° 165° (SSE) 2,182 6.6 -14.9°
Maximum altitude 02:29:29 85° 252° (WSW) 739 4.3 -14.4°
Drops below altitude 10° 02:34:29 10° 343° (NNW) 2,258 7.3 -13.8°
Sets 02:36:48 0° 344° (NNW) 3,189 8.1 -13.6°
